This is the latest recevied weather packets stored in our database for station/object K2CCS. If no packets are shown the sender has not sent any weather packets the latest 10 day(s).
| Time | Temp. | Humidity | Pressure | Rain* | Wind** | Luminosity | Snow |
|---|---|---|---|---|---|---|---|
| 1777846602 | 15° C | 28% | 1012 hPa | 0 mm | - | 185 W/m² | - |
| 1777846299 | 15° C | 29% | 1012.2 hPa | 0 mm | - | 95 W/m² | - |
| 1777845996 | 14.44° C | 29% | 1011.9 hPa | 0 mm | - | 219 W/m² | - |
| 1777845692 | 14.44° C | 30% | 1012 hPa | 0 mm | - | 246 W/m² | - |
| 1777845390 | 13.89° C | 30% | 1012.3 hPa | 0 mm | - | 260 W/m² | - |
| 1777845086 | 13.89° C | 30% | 1012.2 hPa | 0 mm | - | 103 W/m² | - |
| 1777844785 | 13.89° C | 31% | 1012.1 hPa | 0 mm | - | 281 W/m² | - |
| 1777844480 | 15° C | 30% | 1012.2 hPa | 0 mm | - | 334 W/m² | - |
| 1777844175 | 14.44° C | 31% | 1012.2 hPa | 0 mm | - | 342 W/m² | - |
| 1777843870 | 15° C | 32% | 1012.1 hPa | 0 mm | - | 382 W/m² | - |
| 1777843568 | 13.89° C | 31% | 1012 hPa | 0 mm | - | 362 W/m² | - |
| 1777843265 | 13.33° C | 32% | 1012.4 hPa | 0 mm | - | 398 W/m² | - |
| 1777842963 | 13.33° C | 33% | 1012.3 hPa | 0 mm | - | 91 W/m² | - |
| 1777842658 | 12.78° C | 33% | 1012.3 hPa | 0 mm | - | 100 W/m² | - |
| 1777842355 | 12.78° C | 33% | 1012.5 hPa | 0 mm | - | 426 W/m² | - |
| 1777842050 | 12.78° C | 33% | 1012.4 hPa | 0 mm | - | 81 W/m² | - |
| 1777841747 | 13.33° C | 33% | 1012.2 hPa | 0 mm | - | 459 W/m² | - |
| 1777841444 | 13.89° C | 33% | 1012.6 hPa | 0 mm | - | 356 W/m² | - |
| 1777841141 | 13.89° C | 33% | 1012.5 hPa | 0 mm | - | 490 W/m² | - |
| 1777840838 | 13.89° C | 33% | 1012.5 hPa | 0 mm | - | 496 W/m² | - |
| 1777840535 | 13.89° C | 32% | 1012.5 hPa | 0 mm | - | 548 W/m² | - |
| 1777840232 | 13.89° C | 34% | 1012.5 hPa | 0 mm | - | 505 W/m² | - |
| 1777839930 | 13.33° C | 34% | 1012.5 hPa | 0 mm | - | 564 W/m² | - |
| 1777839628 | 12.78° C | 35% | 1012.5 hPa | 0 mm | - | 592 W/m² | - |
| 1777839326 | 12.22° C | 37% | 1012.8 hPa | 0 mm | - | 238 W/m² | - |
* Rain latest hour (hover to see other rain measurements)
** Current wind speed in m/s (hover to see current wind gust speed)